Location: Wapato
(46.4478°N, 120.4212°W)
Time: 22:42:57
(UTC+00:00)

Vanguard 1 Rocket - Pass Details

Date: 17 May 2026
Orbit: 656 x 4211 km, 34.3° (Epoch: 2 June)

Event Time Altitude Azimuth Distance (km) Brightness Sun altitude
Rises 01:25:18 0° 259° (W) 4,810 12.4 19.4°
Reaches altitude 10° 01:27:58 10° 254° (WSW) 4,167 12.2 19.0°
Maximum altitude 01:39:32 51° 183° (S) 3,251 10.4 17.0°
Drops below altitude 10° 02:00:21 10° 116° (ESE) 7,112 11.4 13.5°
Sets 02:06:45 0° 113° (ESE) 8,365 11.7 12.4°
